{"data":{"norad_id":66684,"intl_designator":"2025-276U","name":"MICE-1","alt_names":[],"object_type":"PAYLOAD","status":"ACTIVE","operator":null,"country":"GREC","launch_date":"2025-11-28","launch_site_code":"AFWTR","launch_vehicle":null,"mission":null,"orbit_class":"UNKNOWN","rcs_meters":null,"size_class":null,"mass_kg":null,"dimensions":null,"purposes":[],"wikipedia_slug":null,"has_3d_model":false,"image_url":null,"decayed_at":null,"tle_current":{"epoch":"2026-09-20T22:20:01.709376Z","epoch_age_seconds":83772,"freshness":"FRESH","line1":"1 66684U 25276U   26263.93057534  .00002099  00000+0  10129-3 0  9992","line2":"2 66684  97.4193 335.9593 0006036  34.9282 325.2348 15.19757647 44956","mean_motion":15.19757647,"eccentricity":0.0006036,"inclination_deg":97.4193,"raan_deg":335.9593,"arg_perigee_deg":34.9282,"mean_anomaly_deg":325.2348,"bstar":0.00010129,"rev_number":4495,"period_min":94.751949617925,"perigee_km":502.41683396789,"apogee_km":510.7280552094,"semimajor_km":6884.7094445886,"source":"CELESTRAK","updated_at":"2026-09-21T09:00:16.124466Z"}}}